Location: Fort Worth, Tx
(32.7431°N, 97.3695°W)
Time: 14:12:10
(UTC-04:00)

Transit 2A - Pass Details

Date: 29 February 2024
Orbit: 596 x 956 km, 66.7° (Epoch: 20 April)

Event Time Altitude Azimuth Distance (km) Brightness Sun altitude
Exits shadow 04:38:52 11° 109° (ESE) 2,291 8.8 -42.0°
Drops below altitude 10° 04:39:14 10° 112° (ESE) 2,400 8.9 -42.0°
Sets 04:42:13 0° 125° (SE) 3,396 9.7 -41.4°
